KJSO

Details ICAO KJSO
Name CHEROKEE CO
Region United States
Timezone America/Chicago (UTC-5.0)
Plans Departing 2
Arriving 1
Stats Elevation 677 ft / 206 m (AMSL)
Location 31.869325° -95.217400°
Runways 1
Magnetic Variation 2.289° E
Sunrise 2018-05-23 11:20:39 UTC / 2018-05-23 06:20:39 Local
Sunset 2018-05-24 01:17:30 UTC / 2018-05-23 20:17:30 Local
Advertisement - Login to hide

Runways

ID Width Length Bearing (true) Bearing (mag) Surface Threshold Offset Overrun Length
14 75 ft / 23 m 5,017 ft / 1,529 m 140.20° 137.91° Asphalt 0 ft / 0 m 0 ft / 0 m
32 75 ft / 23 m 5,017 ft / 1,529 m 320.20° 317.91° Asphalt 0 ft / 0 m 0 ft / 0 m

Map

Weather


0- 5 10 15 20 25 30 35+ Temperature / ° C

Clouds and Precipitation
Forecast for 2018-05-23 18:00 UTC. Updated 2 hours ago

Ground ~20,000 ft ~40,000 ft Winds

METAR

KJSO 231935Z AUTO 12003KT 10SM SCT048 BKN050 BKN065 30/19 A3006 RMK AO2 T03050191

TAF

Not found

Frequencies

Recorded 119.07 MHz AWOS 3
Approach 128.75 MHz LONGVIEW APP/DEP
Unicom 122.70 MHz CTAF/UNICOM
Warning: Do not use this data for real-world aviation or navigation. No guarantee of current accuracy is given.